�������l�o���
Date,Time,MP-1(��Sv/h),MP-2(��Sv/h),MP-3(��Sv/h),MP-4(��Sv/h),MP-5(��Sv/h),MP-6(��Sv/h),MP-7(��Sv/h),MP-8(��Sv/h),����,����(m/s),���J
2017/01/11,00:00,1.066,1.777,1.158,2.017,1.391,0.558,1.022,0.949,�k�k��,7.6,��
2017/01/11,00:10,1.068,1.777,1.160,2.013,1.388,0.557,1.021,0.950,�k�k��,7.2,��
2017/01/11,00:20,1.068,1.773,1.161,2.012,1.391,0.555,1.019,0.951,�k,7.7,��
2017/01/11,00:30,1.070,1.775,1.158,2.013,1.389,0.557,1.022,0.949,�k,6.2,��
2017/01/11,00:40,1.070,1.777,1.160,2.012,1.391,0.558,1.020,0.948,�k,5.7,��
2017/01/11,00:50,1.067,1.774,1.158,2.012,1.387,0.559,1.021,0.949,�k,4.9,��
2017/01/11,01:00,1.067,1.776,1.160,2.012,1.387,0.558,1.021,0.949,�k,5.3,��
2017/01/11,01:10,1.068,1.774,1.159,2.009,1.392,0.554,1.022,0.949,�k,4.6,��
2017/01/11,01:20,1.065,1.774,1.156,2.014,1.389,0.557,1.022,0.948,�k,4.3,��
2017/01/11,01:30,1.065,1.771,1.156,2.011,1.391,0.557,1.020,0.946,�k�k��,4.7,��
2017/01/11,01:40,1.065,1.772,1.157,2.010,1.389,0.557,1.021,0.949,�k�k��,4.0,��
2017/01/11,01:50,1.065,1.773,1.157,2.013,1.386,0.557,1.020,0.946,�k�k��,4.7,��
2017/01/11,02:00,1.065,1.772,1.155,2.009,1.391,0.558,1.020,0.948,�k��,4.9,��
2017/01/11,02:10,1.069,1.771,1.156,2.010,1.388,0.556,1.019,0.948,�k��,5.3,��
2017/01/11,02:20,1.067,1.774,1.158,2.010,1.388,0.557,1.022,0.950,�k�k��,5.3,��
2017/01/11,02:30,1.067,1.770,1.159,2.007,1.385,0.557,1.020,0.949,�k�k��,5.7,��
2017/01/11,02:40,1.066,1.774,1.158,2.010,1.390,0.558,1.020,0.948,�k��,6.1,��
2017/01/11,02:50,1.067,1.773,1.158,2.012,1.389,0.557,1.019,0.948,�k��,6.5,��
2017/01/11,03:00,1.067,1.773,1.158,2.012,1.387,0.556,1.022,0.948,�k��,6.6,��
2017/01/11,03:10,1.067,1.771,1.156,2.012,1.388,0.557,1.019,0.948,���k��,5.0,��
2017/01/11,03:20,1.068,1.773,1.159,2.010,1.390,0.557,1.019,0.949,�k��,4.6,��
2017/01/11,03:30,1.066,1.775,1.157,2.011,1.386,0.556,1.019,0.947,�k��,4.0,��
2017/01/11,03:40,1.068,1.775,1.158,2.013,1.389,0.556,1.022,0.949,�k�k��,5.2,��
2017/01/11,03:50,1.067,1.771,1.157,2.009,1.388,0.557,1.020,0.947,�k��,5.5,��
2017/01/11,04:00,1.067,1.774,1.158,2.010,1.387,0.557,1.021,0.948,�k��,5.5,��
2017/01/11,04:10,1.067,1.774,1.160,2.014,1.388,0.557,1.020,0.948,�k��,5.6,��
2017/01/11,04:20,1.065,1.774,1.157,2.011,1.389,0.557,1.022,0.948,�k��,5.7,��
2017/01/11,04:30,1.068,1.774,1.159,2.016,1.389,0.557,1.022,0.949,�k��,6.4,��
2017/01/11,04:40,1.067,1.772,1.158,2.012,1.387,0.556,1.021,0.949,�k��,7.5,��
2017/01/11,04:50,1.065,1.772,1.160,2.012,1.388,0.557,1.020,0.950,�k��,9.0,��
2017/01/11,05:00,1.066,1.774,1.158,2.015,1.388,0.559,1.022,0.949,�k��,8.5,��
2017/01/11,05:10,1.067,1.775,1.159,2.012,1.386,0.557,1.021,0.948,�k��,8.1,��
2017/01/11,05:20,1.067,1.775,1.159,2.012,1.388,0.556,1.024,0.949,�k��,7.4,��
2017/01/11,05:30,1.068,1.775,1.158,2.015,1.390,0.555,1.022,0.947,�k��,8.4,��
2017/01/11,05:40,1.066,1.772,1.160,2.013,1.390,0.556,1.023,0.950,�k��,9.3,��
2017/01/11,05:50,1.067,1.775,1.157,2.015,1.386,0.557,1.022,0.949,�k��,8.9,��
2017/01/11,06:00,1.066,1.774,1.158,2.014,1.387,0.557,1.020,0.951,�k��,8.3,��
2017/01/11,06:10,1.067,1.773,1.156,2.010,1.385,0.554,1.022,0.950,�k��,7.1,��
2017/01/11,06:20,1.067,1.774,1.157,2.013,1.388,0.557,1.021,0.948,�k��,6.8,��
2017/01/11,06:30,1.066,1.775,1.159,2.009,1.388,0.557,1.022,0.950,�k��,7.4,��
2017/01/11,06:40,1.066,1.775,1.157,2.015,1.388,0.556,1.021,0.949,�k��,4.8,��
2017/01/11,06:50,1.065,1.774,1.160,2.015,1.389,0.557,1.022,0.950,���k��,4.1,��
2017/01/11,07:00,1.065,1.771,1.159,2.014,1.387,0.558,1.021,0.949,���k��,4.6,��
2017/01/11,07:10,1.067,1.772,1.160,2.014,1.389,0.555,1.019,0.948,�k��,5.1,��
2017/01/11,07:20,1.064,1.775,1.158,2.013,1.389,0.556,1.020,0.949,���k��,4.5,��
2017/01/11,07:30,1.066,1.774,1.159,2.015,1.386,0.555,1.018,0.948,���k��,3.7,��
2017/01/11,07:40,1.064,1.773,1.159,2.014,1.390,0.555,1.019,0.949,���k��,3.1,��
2017/01/11,07:50,1.066,1.773,1.155,2.016,1.387,0.556,1.018,0.950,���k��,4.2,��
2017/01/11,08:00,1.065,1.769,1.156,2.015,1.388,0.556,1.020,0.952,���k��,5.5,��
2017/01/11,08:10,1.064,1.768,1.157,2.014,1.387,0.557,1.020,0.948,���k��,5.7,��
2017/01/11,08:20,1.067,1.777,1.159,2.012,1.390,0.557,1.019,0.948,���k��,6.1,��
2017/01/11,08:30,1.068,1.774,1.158,2.016,1.387,0.556,1.021,0.950,���k��,6.8,��
2017/01/11,08:40,1.066,1.775,1.158,2.016,1.389,0.555,1.022,0.950,���k��,7.7,��
2017/01/11,08:50,1.069,1.776,1.159,2.015,1.388,0.556,1.022,0.950,���k��,5.0,��
2017/01/11,09:00,1.066,1.774,1.157,2.012,1.389,0.556,1.020,0.949,���k��,3.6,��
2017/01/11,09:10,1.067,1.776,1.158,2.014,1.390,0.555,1.022,0.950,���k��,4.2,��
2017/01/11,09:20,1.067,1.776,1.156,2.015,1.390,0.556,1.022,0.951,�k��,3.1,��
2017/01/11,09:30,1.070,1.773,1.161,2.014,1.391,0.555,1.021,0.949,���k��,3.4,��
2017/01/11,09:40,1.069,1.777,1.158,2.017,1.391,0.557,1.022,0.950,���k��,4.8,��
2017/01/11,09:50,1.070,1.777,1.162,2.017,1.394,0.557,1.021,0.949,�k��,3.9,��
2017/01/11,10:00,1.070,1.780,1.162,2.019,1.394,0.556,1.021,0.951,�k�k��,3.0,��
2017/01/11,10:10,1.070,1.776,1.157,2.016,1.398,0.558,1.023,0.951,�k��,3.2,��
2017/01/11,10:20,1.071,1.780,1.164,2.017,1.390,0.556,1.021,0.951,�k��,3.2,��
2017/01/11,10:30,1.071,1.775,1.164,2.017,1.379,0.557,1.022,0.950,�k�k��,3.0,��
2017/01/11,10:40,1.072,1.773,1.162,2.018,1.361,0.558,1.021,0.949,�k��,2.9,��
2017/01/11,10:50,1.071,1.778,1.164,2.020,1.356,0.558,1.022,0.952,�k�k��,2.6,��
2017/01/11,11:00,1.072,1.771,1.163,2.022,1.364,0.560,1.022,0.952,�k,1.7,��
2017/01/11,11:10,1.072,1.774,1.163,2.020,1.363,0.558,1.022,0.951,�k�k��,2.3,��
2017/01/11,11:20,1.075,1.779,1.163,2.021,1.368,0.558,1.021,0.951,�k�k��,2.3,��
2017/01/11,11:30,1.076,1.778,1.165,2.020,1.384,0.558,1.022,0.950,�k�k��,2.8,��
2017/01/11,11:40,1.076,1.778,1.163,2.020,1.389,0.560,1.020,0.951,�k�k��,3.4,��
2017/01/11,11:50,1.074,1.780,1.164,2.022,1.392,0.559,1.023,0.952,�k�k��,4.0,��
2017/01/11,12:00,1.074,1.782,1.164,2.019,1.393,0.559,1.024,0.950,�k,3.5,��
2017/01/11,12:10,1.075,1.780,1.164,2.023,1.396,0.557,1.023,0.950,�k�k��,2.6,��
2017/01/11,12:20,1.074,1.778,1.166,2.022,1.396,0.558,1.021,0.951,�k��,3.3,��
2017/01/11,12:30,1.074,1.781,1.165,2.019,1.398,0.559,1.022,0.953,�k��,3.4,��
2017/01/11,12:40,1.073,1.780,1.167,2.021,1.396,0.559,1.022,0.951,���k��,3.0,��
2017/01/11,12:50,1.074,1.783,1.165,2.021,1.398,0.560,1.021,0.950,���k��,3.1,��
2017/01/11,13:00,1.073,1.785,1.166,2.022,1.396,0.561,1.021,0.951,�k�k��,2.5,��
2017/01/11,13:10,1.074,1.781,1.165,2.019,1.396,0.559,1.023,0.952,�k,3.4,��
2017/01/11,13:20,1.077,1.781,1.168,2.021,1.396,0.559,1.024,0.951,�k,3.5,��
2017/01/11,13:30,1.075,1.783,1.165,2.023,1.398,0.558,1.023,0.952,�k,3.7,��
2017/01/11,13:40,1.075,1.784,1.164,2.023,1.398,0.559,1.023,0.950,�k,3.1,��
2017/01/11,13:50,1.074,1.784,1.165,2.020,1.398,0.560,1.022,0.952,�k�k��,3.7,��
2017/01/11,14:00,1.074,1.781,1.164,2.023,1.397,0.561,1.022,0.950,�k,2.6,��
2017/01/11,14:10,1.076,1.783,1.166,2.019,1.397,0.558,1.023,0.950,�k�k��,4.6,��
2017/01/11,14:20,1.076,1.783,1.167,2.022,1.398,0.560,1.024,0.951,�k�k��,3.8,��
2017/01/11,14:30,1.074,1.783,1.168,2.020,1.399,0.559,1.024,0.949,�k,4.6,��
2017/01/11,14:40,1.077,1.782,1.166,2.021,1.398,0.561,1.024,0.952,�k,3.6,��
2017/01/11,14:50,1.076,1.783,1.165,2.023,1.397,0.560,1.023,0.949,�k��,3.7,��
2017/01/11,15:00,1.076,1.785,1.166,2.024,1.399,0.560,1.025,0.951,�k�k��,3.6,��
2017/01/11,15:10,1.075,1.781,1.167,2.024,1.400,0.561,1.025,0.950,�k�k��,5.0,��
2017/01/11,15:20,1.075,1.785,1.165,2.024,1.400,0.558,1.023,0.950,�k�k��,5.4,��
2017/01/11,15:30,1.075,1.784,1.164,2.026,1.399,0.559,1.024,0.951,�k�k��,6.6,��
2017/01/11,15:40,1.075,1.783,1.164,2.021,1.401,0.559,1.022,0.951,�k�k��,6.5,��
2017/01/11,15:50,1.075,1.784,1.166,2.023,1.401,0.560,1.025,0.952,�k�k��,6.4,��
2017/01/11,16:00,1.077,1.785,1.165,2.024,1.398,0.558,1.024,0.952,�k�k��,5.8,��
2017/01/11,16:10,1.076,1.783,1.166,2.023,1.402,0.559,1.025,0.952,�k�k��,6.4,��
2017/01/11,16:20,1.074,1.786,1.168,2.023,1.400,0.560,1.025,0.950,�k�k��,6.4,��
2017/01/11,16:30,1.078,1.786,1.166,2.022,1.401,0.559,1.025,0.952,�k�k��,5.8,��
2017/01/11,16:40,1.074,1.788,1.165,2.023,1.401,0.559,1.025,0.952,�k�k��,5.8,��
2017/01/11,16:50,1.074,1.787,1.166,2.024,1.398,0.557,1.025,0.951,�k�k��,6.9,��
2017/01/11,17:00,1.075,1.783,1.165,2.023,1.399,0.558,1.025,0.950,�k��,6.0,��
2017/01/11,17:10,1.076,1.786,1.165,2.023,1.397,0.557,1.025,0.951,�k��,6.2,��
2017/01/11,17:20,1.074,1.779,1.167,2.021,1.397,0.556,1.024,0.950,�k��,6.7,��
2017/01/11,17:30,1.075,1.783,1.167,2.023,1.398,0.557,1.024,0.949,�k��,6.2,��
2017/01/11,17:40,1.074,1.783,1.167,2.019,1.398,0.558,1.025,0.951,�k��,5.7,��
2017/01/11,17:50,1.074,1.786,1.166,2.020,1.400,0.559,1.023,0.949,�k�k��,6.1,��
2017/01/11,18:00,1.074,1.783,1.164,2.023,1.400,0.557,1.023,0.950,�k�k��,6.3,��
2017/01/11,18:10,1.072,1.787,1.165,2.023,1.398,0.557,1.027,0.949,�k��,6.7,��
2017/01/11,18:20,1.074,1.786,1.167,2.023,1.402,0.557,1.023,0.950,�k��,8.0,��
2017/01/11,18:30,1.075,1.786,1.167,2.023,1.398,0.559,1.023,0.950,�k��,7.8,��
2017/01/11,18:40,1.074,1.784,1.164,2.021,1.400,0.557,1.024,0.950,�k��,8.3,��
2017/01/11,18:50,1.075,1.782,1.164,2.024,1.400,0.559,1.024,0.952,�k��,7.8,��
2017/01/11,19:00,1.074,1.784,1.166,2.023,1.399,0.561,1.025,0.950,�k��,6.8,��
2017/01/11,19:10,1.074,1.786,1.165,2.021,1.399,0.559,1.026,0.952,�k��,7.0,��
2017/01/11,19:20,1.074,1.786,1.166,2.021,1.397,0.558,1.025,0.949,�k��,7.4,��
2017/01/11,19:30,1.071,1.785,1.165,2.024,1.399,0.559,1.022,0.951,�k��,7.4,��
2017/01/11,19:40,1.074,1.782,1.166,2.023,1.399,0.559,1.025,0.951,�k��,7.6,��
2017/01/11,19:50,1.072,1.785,1.165,2.023,1.399,0.559,1.024,0.950,�k��,8.0,��
2017/01/11,20:00,1.072,1.787,1.164,2.024,1.398,0.559,1.024,0.950,�k�k��,6.9,��
2017/01/11,20:10,1.073,1.784,1.163,2.025,1.397,0.558,1.022,0.950,�k�k��,6.4,��
2017/01/11,20:20,1.072,1.784,1.163,2.021,1.397,0.555,1.024,0.952,�k��,5.3,��
2017/01/11,20:30,1.074,1.782,1.166,2.024,1.397,0.558,1.022,0.952,�k��,6.3,��
2017/01/11,20:40,1.072,1.782,1.165,2.019,1.399,0.558,1.022,0.949,�k��,5.7,��
2017/01/11,20:50,1.074,1.783,1.165,2.024,1.398,0.559,1.025,0.951,�k�k��,6.0,��
2017/01/11,21:00,1.073,1.784,1.164,2.021,1.397,0.559,1.023,0.951,�k�k��,5.3,��
2017/01/11,21:10,1.071,1.785,1.164,2.022,1.397,0.557,1.024,0.953,�k�k��,5.3,��
2017/01/11,21:20,1.072,1.783,1.163,2.019,1.398,0.558,1.023,0.950,�k�k��,4.5,��
2017/01/11,21:30,1.071,1.784,1.164,2.022,1.396,0.557,1.021,0.950,�k�k��,4.4,��
2017/01/11,21:40,1.072,1.783,1.164,2.021,1.399,0.558,1.023,0.950,�k�k��,4.6,��
2017/01/11,21:50,1.073,1.781,1.164,2.020,1.396,0.558,1.022,0.951,�k�k��,4.6,��
2017/01/11,22:00,1.071,1.783,1.163,2.019,1.396,0.559,1.021,0.951,�k�k��,3.5,��
2017/01/11,22:10,1.070,1.782,1.164,2.022,1.397,0.559,1.021,0.949,�k�k��,3.3,��
2017/01/11,22:20,1.069,1.783,1.164,2.022,1.396,0.558,1.023,0.950,�k�k��,2.6,��
2017/01/11,22:30,1.072,1.781,1.161,2.022,1.395,0.558,1.021,0.948,�k�k��,2.6,��
2017/01/11,22:40,1.070,1.783,1.163,2.022,1.396,0.558,1.023,0.949,�k�k��,2.3,��
2017/01/11,22:50,1.071,1.783,1.161,2.023,1.396,0.559,1.021,0.948,�k�k��,2.8,��
2017/01/11,23:00,1.075,1.781,1.163,2.023,1.396,0.558,1.021,0.948,�k��,2.0,��
2017/01/11,23:10,1.072,1.782,1.164,2.019,1.398,0.558,1.020,0.950,�k��,1.7,��
2017/01/11,23:20,1.073,1.783,1.160,2.020,1.396,0.557,1.020,0.951,�k��,1.5,��
2017/01/11,23:30,1.069,1.781,1.159,2.021,1.396,0.558,1.022,0.952,���k��,1.5,��
2017/01/11,23:40,1.072,1.784,1.161,2.022,1.397,0.559,1.022,0.950,�k�k��,1.9,��
2017/01/11,23:50,1.074,1.783,1.163,2.022,1.395,0.559,1.023,0.950,�k��,2.3,��
